Regional Weather Roundup
Issued by NWS

Home | Current Version | Previous Version | Graphics & Text | Print | Product List | Glossary On
Versions: 1 2 3 4 5 6 7 8 9 10 11 12 13 14 15 16 17 18 19 20 21 22 23 24 25 26 27 28 29 30 31 32 33 34 35 36 37 38 39 40 41 42 43 44 45 46 47 48 49 50
171
ASUS44 KJAN 271910
RWRMS

MISSISSIPPI HOURLY WEATHER ROUNDUP
NATIONAL WEATHER SERVICE JACKSON MS
100 PM CST THU NOV 27 2014

NOTE: "FAIR: INDICATES FEW OR NO CLOUDS BELOW 12,000 FEET WITH NO
SIGNIFICANT WEATHER AND/OR OBSTRUCTIONS TO VISIBILITY.

MSZ001>002-007>008-010>013-018>021-025>028-034>036-272000-
NORTHWEST MISSISSIPPI

CITY           SKY/WX    TMP DP  RH WIND       PRES   REMARKS
CLARKSDALE     FAIR      45  32  61 N8        30.50F
CLEVELAND      CLOUDY    44  33  63 NW10      30.50F
GREENWOOD      CLOUDY    45  29  53 NW10G17   30.49F
GREENVILLE     MOSUNNY   47  30  51 N12       30.50F
GRENADA        FAIR      46  28  49 N7        30.48F
OLIVE BRANCH   PTSUNNY   43  30  61 N10       30.47F
OXFORD         PTSUNNY   41  27  56 W9        30.48F
TUNICA         CLOUDY    43  32  65 NW10      30.51S
$$

MSZ003>006-009-014>017-022>024-029>033-037>039-272000-
NORTHEAST MISSISSIPPI

CITY           SKY/WX    TMP DP  RH WIND       PRES   REMARKS
COLUMBUS AFB   CLOUDY    43  28  56 N10       30.46R
CORINTH        CLOUDY    43  28  56 N10       30.44F
GOLDN TRIANGLE PTSUNNY   45  28  53 N9G18     30.44S
STARKVILLE     CLOUDY    43  32  65 N6        30.45F
TUPELO         CLOUDY    43  28  55 MISG      30.45F
$$

MSZ040-058-272000-
CENTRAL MISSISSIPPI

CITY           SKY/WX    TMP DP  RH WIND       PRES   REMARKS
JACKSON INTL   MOSUNNY   51  29  42 NW10G17   30.45F
JACKSON HAWKNS SUNNY     50  29  44 NW10      30.45F
MERIDIAN KEY   SUNNY     51  30  44 N13G18    30.41F
MERIDIAN NAS   MOSUNNY   49  29  46 VRB7      30.42F
RAYMOND        FAIR      50  45  81 NW12G18   30.46F
VICKSBURG      SUNNY     50  30  46 N9        30.48F
$$

MSZ059>079-272000-
SOUTH MISSISSIPPI

CITY           SKY/WX    TMP DP  RH WIND       PRES   REMARKS
BROOKHAVEN     FAIR      52  32  46 NW13      30.44F
HATTIESBURG    SUNNY     56  30  37 N10       30.42F
MCCOMB         SUNNY     55  28  35 N10G20    30.42F
NATCHEZ        SUNNY     52  30  43 NW15      30.45F
PINE BELT      SUNNY     55  30  38 NW8G16    30.43S
$$

MSZ080>082-272000-
COASTAL MISSISSIPPI

CITY           SKY/WX    TMP DP  RH WIND       PRES   REMARKS
BAY ST LOUIS   SUNNY     61  23  23 N12G17    30.38F
BILOXI         SUNNY     59  30  32 VRB5      30.37F
PASCAGOULA     SUNNY     60  29  30 N14G21    30.35F
GULFPORT       SUNNY     60  29  30 NW14G21   30.37F
$$



USA.gov is the U.S. government's official web portal to all federal, state and local government web resources and services.